Stubai Valley, Austria 16 day weather forecast

Slopes altitude range 935 m - 1000m

Number of lifts: 22 Pistes: 43km

In some cases the lift and piste totals shown are for the ski domain (e.g. Three Valleys) rather than individual resort (e.g. Courchevel)

Overview

The 16 day weather forecast is fully updated 4 times every day.

    • Wed 23 MAY 2018
    • Wed 23
    • 3C 8C
    • Thu 24 MAY 2018
    • Thu 24
    • 4C 8C
    • Fri 25 MAY 2018
    • Fri 25
    • 6C 13C
    • Sat 26 MAY 2018
    • Sat 26
    • 9C 15C
    • Sun 27 MAY 2018
    • Sun 27
    • 9C 15C
    • Mon 28 MAY 2018
    • Mon 28
    • 9C 15C
    • Tue 29 MAY 2018
    • Tue 29
    • 8C 14C
    • Wed 30 MAY 2018
    • Wed 30
    • 9C 14C
    • Thu 31 MAY 2018
    • Thu 31
    • 10C 14C
    • Fri 01 JUN 2018
    • Fri 01
    • 9C 13C
    • Sat 02 JUN 2018
    • Sat 02
    • 11C 16C
    • Sun 03 JUN 2018
    • Sun 03
    • 11C 18C
    • Mon 04 JUN 2018
    • Mon 04
    • 2C 10C
    • Tue 05 JUN 2018
    • Tue 05
    • 3C 9C
    • Wed 06 JUN 2018
    • Wed 06
    • 5C 7C
    • Thu 07 JUN 2018
    • Thu 07
    • 3C 11C

Date:

Time Type 0°C level Temp Chill Snow Cloud Speed Gust Dir Press
3:00 2180m -2°C -2_5 0cm 96% 5mph 6mph 1017mB
6:00 2921m -2°C -2_0 0cm 98% 0mph 0mph 1017mB
9:00 3046m 3°C 3_3 0cm 100% 3mph 3mph 1017mB
12:00 3305m 8°C 8_3 0cm 100% 3mph 4mph 1016mB
15:00 3411m 9°C 9_3 0cm 100% 3mph 4mph 1015mB
18:00 3368m 9°C 9_2 0cm 100% 2mph 3mph 1016mB
21:00 3384m 3°C 3_5 0cm 100% 5mph 6mph 1018mB
0:00 3323m 3°C 3_5 0cm 100% 5mph 6mph 1019mB
3:00 3226m 2°C 2_3 0cm 100% 3mph 4mph 1019mB
6:00 3171m 2°C 2_2 0cm 100% 2mph 3mph 1019mB
9:00 3243m 4°C 4_4 0cm 100% 4mph 4mph 1019mB
12:00 3455m 8°C 8_1 0cm 100% 1mph 2mph 1017mB
15:00 3579m 10°C 10_5 0cm 100% 5mph 5mph 1016mB
18:00 3495m 10°C 10_5 0cm 99% 5mph 6mph 1018mB
21:00 3504m 4°C 4_3 0cm 96% 3mph 4mph 1020mB
0:00 3541m 0°C 0_3 0cm 89% 3mph 4mph 1020mB
3:00 2247m -2°C -2_3 0cm 78% 3mph 4mph 1020mB
6:00 3626m -2°C -2_4 0cm 56% 4mph 5mph 1019mB
9:00 3595m 6°C 6_5 0cm 18% 5mph 4mph 1018mB
12:00 3676m 13°C 13_6 0cm 10% 6mph 5mph 1017mB
15:00 3713m 13°C 13_9 0cm 78% 9mph 9mph 1017mB
18:00 3783m 13°C 13_7 0cm 89% 7mph 9mph 1018mB
21:00 3761m 2°C 2_2 0cm 100% 2mph 3mph 1021mB
0:00 3785m 1°C 1_3 0cm 76% 3mph 5mph 1021mB
3:00 3792m 1°C 1_3 0cm 4% 3mph 4mph 1021mB
6:00 3864m 1°C 1_2 0cm 41% 2mph 2mph 1021mB
9:00 3838m 9°C 9_2 0cm 97% 2mph 2mph 1020mB
12:00 3920m 15°C 15_3 0cm 98% 3mph 3mph 1019mB
15:00 3951m 15°C 15_5 0cm 99% 5mph 5mph 1019mB
18:00 3962m 15°C 15_3 0cm 100% 3mph 4mph 1020mB
21:00 3943m 7°C 7_1 0cm 100% 1mph 2mph 1022mB
0:00 3945m 6°C 6_4 0cm 100% 4mph 5mph 1022mB
3:00 3942m 5°C 5_3 0cm 100% 3mph 4mph 1021mB
6:00 3931m 5°C 5_3 0cm 100% 3mph 3mph 1020mB
9:00 3895m 9°C 9_4 0cm 100% 4mph 5mph 1019mB
12:00 3940m 15°C 15_3 0cm 100% 3mph 4mph 1018mB
15:00 3925m 15°C 15_3 0cm 100% 3mph 4mph 1018mB
18:00 3918m 15°C 15_1 0cm 100% 1mph 2mph 1019mB
21:00 4026m 8°C 8_5 0cm 100% 5mph 6mph 1020mB
0:00 4012m 7°C 7_7 0cm 100% 7mph 9mph 1020mB
3:00 3984m 5°C 5_6 0cm 96% 6mph 7mph 1019mB
6:00 3913m 5°C 5_5 0cm 98% 5mph 6mph 1019mB
9:00 3961m 9°C 9_3 0cm 100% 3mph 3mph 1017mB
12:00 3974m 15°C 15_6 0cm 97% 6mph 6mph 1015mB
15:00 4057m 16°C 16_8 0cm 100% 8mph 8mph 1015mB
18:00 4036m 16°C 16_8 0cm 100% 8mph 10mph 1015mB
21:00 4075m 7°C 7_9 0cm 100% 9mph 12mph 1017mB
0:00 4051m 7°C 7_10 0cm 100% 10mph 13mph 1016mB
3:00 4016m 6°C 6_9 0cm 100% 9mph 12mph 1016mB
6:00 3956m 6°C 6_7 0cm 100% 7mph 9mph 1016mB
9:00 3841m 8°C 8_4 0cm 100% 4mph 3mph 1015mB
12:00 3987m 14°C 14_5 0cm 89% 5mph 5mph 1014mB
15:00 4016m 14°C 14_3 0cm 100% 3mph 4mph 1013mB
18:00 3964m 14°C 14_1 0cm 100% 1mph 2mph 1014mB
21:00 3966m 7°C 7_2 0cm 100% 2mph 2mph 1016mB
0:00 4043m 6°C 6_2 0cm 100% 2mph 3mph 1016mB
3:00 3971m 5°C 5_3 0cm 100% 3mph 4mph 1016mB
6:00 3981m 4°C 4_2 0cm 100% 2mph 3mph 1016mB
9:00 4004m 9°C 9_3 0cm 100% 3mph 3mph 1014mB
12:00 3985m 14°C 14_2 0cm 100% 2mph 2mph 1013mB
15:00 4077m 14°C 14_5 0cm 100% 5mph 6mph 1013mB
18:00 4044m 14°C 14_2 0cm 100% 2mph 2mph 1013mB
21:00 4094m 8°C 8_4 0cm 100% 4mph 4mph 1015mB
0:00 4116m 7°C 7_5 0cm 100% 5mph 6mph 1015mB
3:00 4058m 5°C 5_5 0cm 99% 5mph 6mph 1015mB
6:00 4021m 5°C 5_2 0cm 99% 2mph 2mph 1015mB
9:00 3978m 10°C 10_3 0cm 95% 3mph 3mph 1014mB
12:00 3988m 14°C 14_3 0cm 92% 3mph 3mph 1013mB
15:00 4059m 14°C 14_4 0cm 100% 4mph 5mph 1013mB
18:00 4011m 14°C 14_3 0cm 100% 3mph 4mph 1015mB
21:00 4012m 8°C 8_3 0cm 100% 3mph 4mph 1017mB
0:00 3988m 6°C 6_3 0cm 100% 3mph 4mph 1017mB
3:00 3984m 4°C 4_3 0cm 100% 3mph 4mph 1017mB
6:00 3954m 4°C 4_5 0cm 100% 5mph 6mph 1017mB
9:00 3987m 9°C 9_6 0cm 100% 6mph 5mph 1017mB
12:00 3996m 13°C 13_7 0cm 100% 7mph 6mph 1016mB
15:00 4038m 13°C 13_8 0cm 100% 8mph 8mph 1016mB
18:00 4047m 13°C 13_4 0cm 100% 4mph 5mph 1017mB
Morning 0.192708mm 2.3125 3988m 5°C 5_6 0cm 98% 6mph 8mph 1019mB
Afternoon 1.79688mm 18.9375 3991m 16°C 16_5 0cm 75% 5mph 6mph 1016mB
Morning 0.046875mm 0.0625 3979m 4°C 4_3 0cm 96% 3mph 3mph 1014mB
Afternoon 1.3125mm 12.625 3957m 18°C 18_3 0cm 95% 3mph 4mph 1010mB
Morning 0.744792mm 4.1875 3525m 8°C 8_8 0cm 100% 8mph 11mph 1012mB
Afternoon 2.41667mm 1.8125 2758m 10°C 10_8 0cm 100% 8mph 11mph 1014mB
Morning 0.822917mm 0 2799m 2°C 2_8 0cm 100% 8mph 11mph 1014mB
Afternoon 0.119792mm 0.25 3264m 9°C 9_7 0cm 87% 7mph 9mph 1011mB
Morning 0.03125mm 0 3103m 2°C 2_5 0cm 73% 5mph 6mph 1011mB
Afternoon 0.979167mm 1.0625 3053m 7°C 7_10 0cm 100% 10mph 13mph 1012mB
Morning 0.5mm 0.1875 2629m 3°C 3_10 0cm 100% 10mph 12mph 1015mB
Afternoon 0.0416667mm 0.1875 3047m 11°C 11_11 0cm 55% 11mph 11mph 1013mB

16 day outlook at a glance

Forecast issued: 23/05/2018 04:25:53

Chat

Your comments and questions. In a resort? Let us know what it's like!


Characters left 250

For terms and conditions see Readers Comments on the Cookie and privacy policy page.